Regional Weather Roundup
Issued by NWS

Home | Current Version | Previous Version | Text Only | Print | Product List | Glossary Off
Versions: 1 2 3 4 5 6 7 8 9 10 11 12 13 14 15 16 17 18 19 20 21 22 23 24 25 26 27 28 29 30 31 32 33 34 35 36 37 38 39 40 41 42 43 44 45 46 47 48 49 50

441
ASUS45 KPSR 032210
RWRAZ

ARIZONA HOURLY REGIONAL WEATHER ROUNDUP
NATIONAL WEATHER SERVICE PHOENIX AZ
300 PM MST SAT DEC 03 2016

NOTE: FAIR INDICATES FEW OR NO CLOUDS BELOW 12,000 FEET WITH NO
SIGNIFICANT WEATHER AND/OR OBSTRUCTIONS TO VISIBILITY.

AZZ001>003-036-032300-
NORTHWEST ARIZONA

CITY           SKY/WX    TMP DP  RH WIND       PRES   REMARKS
BULLHEAD CITY  SUNNY     61  14  16 N24G30    30.10R
KINGMAN        SUNNY     52   6  15 N12       30.10F
$$

AZZ004>008-015-016-018-032300-
NORTH CENTRAL ARIZONA

CITY           SKY/WX    TMP DP  RH WIND       PRES   REMARKS
GRAND CANYON   SUNNY     40  14  34 NE9       30.11S WCI  34
PRESCOTT       SUNNY     52  19  27 N8        30.03S
FLAGSTAFF      SUNNY     41  14  33 E9        30.06S
PAYSON         SUNNY     52  18  25 NE9       30.03S
PAGE           SUNNY     44   7  21 CALM      30.14F
$$

AZZ009>014-017-032300-
NORTHEAST ARIZONA

CITY           SKY/WX    TMP DP  RH WIND       PRES   REMARKS
WINSLOW        SUNNY     47  21  35 NW12      30.08S
SAINT JOHNS    SUNNY     46  26  45 NW7       30.02F
SHOW LOW       SUNNY     39  23  52 N15       30.04F WCI  31
$$

AZZ023-032300-
GREATER PHOENIX AREA

CITY           SKY/WX    TMP DP  RH WIND       PRES   REMARKS
PHOENIX        MOSUNNY   68  23  18 NW7       29.89F
BUCKEYE        SUNNY     68  19  15 SW6       29.94S
GLENDALE       SUNNY     70  25  18 W9        29.92F
LUKE AFB       SUNNY     69  26  19 NW5       29.90F
DEER VALLEY    SUNNY     68  23  18 CALM      29.90F
SCOTTSDALE     SUNNY     68  23  18 W7        29.92F
MESA-FALCON    SUNNY    N/A N/A N/A W13       29.88F
MESA-GATEWAY   SUNNY     66  25  20 NW12      29.91F
CHANDLER       SUNNY     68  23  18 NW9       29.90F
$$

AZZ027-028-032300-
SOUTHWEST MARICOPA COUNTY AND PINAL COUNTY

CITY           SKY/WX    TMP DP  RH WIND       PRES   REMARKS
CASA GRANDE    NOT AVBL
GILA BEND      SUNNY     66  21  18 NW8       29.93F
$$

AZZ503-504-507>509-032300-
SOUTHEAST ARIZONA

CITY           SKY/WX    TMP DP  RH WIND       PRES   REMARKS
TUCSON         SUNNY     63  30  28 NW13      29.92S
DAVIS-MONTHAN  SUNNY     62  29  29 NW15G21   29.90S
RYAN FIELD     SUNNY     63  30  29 NW10G17   29.93F
NOGALES        PTSUNNY   59  32  36 W7        29.89S
SIERRA VISTA   MOSUNNY   52  35  52 SE5       29.93S
DOUGLAS        PTSUNNY   51  38  60 E13       29.93R
SAFFORD        SUNNY     59  36  42 SE8       29.90S
$$

AZZ020-021-025-026-031-032300-
SOUTHWEST ARIZONA

CITY           SKY/WX    TMP DP  RH WIND       PRES   REMARKS
YUMA           SUNNY     67  14  13 N15       29.98F
$$

CAZ031-033-041-043-047-048-061-032300-
SOUTHERN CALIFORNIA

CITY           SKY/WX    TMP DP  RH WIND       PRES   REMARKS
DOWNTOWN L.A.  SUNNY     67  33  28 VRB3      30.04F
L.A. AIRPORT   SUNNY     64  34  32 W10       30.06F
SAN DIEGO      SUNNY     64  39  39 NW17      30.06S
BURBANK        SUNNY     66  15  14 VRB3      30.05F
ONTARIO        SUNNY     66  12  12 NW7       30.05F
RIVERSIDE      SUNNY     71  10   9 N18G26    30.03F
PALM SPRINGS   SUNNY     71  -2   5 SE9       30.05F
EL CENTRO NAS  SUNNY     68   9  10 N26G32    30.04F
IMPERIAL       SUNNY     68  20  16 NW17G24   30.02F
BLYTHE         MOSUNNY   67  11  11 N23G32    30.01F
NEEDLES        SUNNY     64  11  12 NE28G35   30.08F
$$

NVZ020-UTZ003-032300-
SOUTHERN NEVADA-UTAH

CITY           SKY/WX    TMP DP  RH WIND       PRES   REMARKS
LAS VEGAS      MOSUNNY   57   4  12 VRB5      30.15F
SALT LAKE CITY CLOUDY    35  20  54 S6        30.26S WCI  30
$$

NMZ009-TXZ055-032300-
NEW MEXICO-WEST TEXAS

CITY           SKY/WX    TMP DP  RH WIND       PRES   REMARKS
ALBUQUERQUE    MOSUNNY   47  27  45 N8        29.98F
EL PASO        PTSUNNY   46  38  73 N10       29.94R
$$


........................KEY........................
SKY/WX - SKY CONDITION/WEATHER
TMP    - TEMPERATURE IN FAHRENHEIT
DP     - DEW POINT IN FAHRENHEIT
RH     - RELATIVE HUMIDITY IN PERCENT
WIND   - DIRECTION AND SPEED IN MILES PER HOUR (MPH)
VRB    - VARIABLE WIND DIRECTION
PRES   - MEAN SEA LEVEL PRESSURE IN INCHES OF MERCURY
         F - FALLING PRESSURE   R - RISING PRESSURE
         S - STEADY PRESSURE
VSB    - VISIBILITY IN MILES
HX     - HEAT INDEX IN FAHRENHEIT
WCI    - WIND CHILL INDEX IN FAHRENHEIT
TC     - TEMPERATURE IN CELSIUS WHICH IS ALSO KNOWN AS
         TEMPERATURE IN CENTIGRADE
AFB    - AIR FORCE BASE
         LUKE AFB IS LUKE AIR FORCE BASE
         DAVIS-MONTHAN IS DAVIS-MONTHAN AIR FORCE BASE
NAS    - NAVAL AIR STATION
         EL CENTRO NAS IS EL CENTRO NAVAL AIR STATION
N/A    - NOT AVAILABLE





USA.gov is the U.S. government's official web portal to all federal, state and local government web resources and services.